Location: Antioch
(38.0049°N, 121.8058°W)
Time: 00:34:02
(UTC+00:00)

Cosmos 1697 Rocket - Pass Details

Date: 11 February 2026
Orbit: 830 x 844 km, 71.0° (Epoch: 10 March)

Event Time Altitude Azimuth Distance (km) Brightness Sun altitude
Exits shadow 13:45:33 24° 271° (W) 1,689 3.6 -15.5°
Maximum altitude 13:47:21 28° 302° (WNW) 1,527 3.5 -15.1°
Drops below altitude 10° 13:52:10 10° 1° (N) 2,464 5.1 -14.2°
Sets 13:54:59 0° 13° (NNE) 3,404 5.9 -13.7°
